Temp
-12 -12 -12 -13 -13 -13 -13 -13 -13 -13 -13 -13 -14 -14 -13 -13 -13 -12 -12 -12 -12 -12 -12 -12 -12 -12 -12 -12 -11 -11 -8 -8 -8 -9 -10 -9 -8 -9 -9 -9 -10 -10 -9 -9 -9
-12 -12 -12 -12 -13 -13 -13 -13 -13 -13 -13 -13 -13 -14 -14 -13 -13 -12 -12 -12 -12 -11 -11 -11 -11 -11 -12 -12 -12 -11 -9 -8 -9 -11 -11 -11 -9 -9 -9 -9 -10 -10 -9 -9 -9
-12 -12 -12 -12 -13 -13 -13 -13 -13 -14 -14 -14 -13 -13 -13 -14 -13 -13 -12 -12 -12 -11 -11 -11 -11 -11 -11 -12 -11 -11 -10 -10 -10 -11 -12 -11 -10 -10 -9 -9 -9 -10 -9 -9 -9
-13 -13 -13 -13 -13 -13 -13 -13 -14 -14 -14 -14 -14 -14 -13 -13 -13 -13 -13 -13 -12 -12 -12 -11 -11 -11 -11 -11 -12 -11 -10 -10 -10 -11 -11 -12 -12 -11 -10 -9 -9 -9 -10 -9 -9
-13 -13 -13 -13 -13 -14 -14 -14 -14 -14 -14 -14 -14 -14 -14 -14 -13 -13 -13 -13 -13 -13 -12 -12 -12 -12 -12 -11 -11 -10 -10 -10 -10 -10 -11 -12 -12 -12 -11 -10 -10 -9 -9 -9 -9
-14 -13 -13 -13 -13 -13 -14 -14 -14 -14 -14 -14 -14 -14 -14 -14 -14 -13 -13 -13 -13 -12 -12 -12 -12 -12 -12 -12 -12 -11 -11 -11 -11 -10 -11 -11 -11 -12 -9 -11 -11 -10 -10 -10 -10
-14 -14 -14 -13 -13 -13 -13 -13 -14 -14 -14 -14 -14 -14 -14 -14 -14 -14 -13 -13 -13 -13 -13 -12 -12 -12 -12 -13 -12 -11 -11 -11 -11 -11 -11 -12 -11 -11 -10 -11 -11 -11 -11 -12 -11
-14 -14 -14 -14 -14 -13 -13 -13 -13 -13 -14 -14 -14 -14 -14 -14 -14 -14 -14 -13 -13 -13 -13 -13 -12 -12 -12 -12 -12 -12 -11 -11 -12 -12 -12 -13 -9 -10 -11 -11 -12 -11 -11 -12 -12
-15 -14 -14 -14 -14 -14 -13 -13 -13 -13 -13 -13 -13 -13 -13 -14 -14 -13 -13 -13 -13 -13 -13 -13 -13 -13 -12 -12 -12 -12 -11 -12 -12 -13 -13 -12 -9 -10 -11 -11 -11 -12 -12 -12 -12
-16 -15 -14 -14 -14 -14 -14 -13 -13 -13 -13 -13 -13 -14 -14 -14 -14 -13 -13 -13 -13 -13 -13 -13 -13 -13 -13 -13 -13 -12 -11 -11 -12 -13 -12 -12 -10 -10 -10 -10 -10 -10 -10 -11 -11
-15 -15 -15 -14 -14 -14 -14 -14 -14 -13 -13 -13 -13 -14 -14 -14 -14 -14 -14 -14 -14 -14 -14 -13 -13 -13 -13 -13 -12 -12 -12 -12 -12 -12 -12 -12 -10 -10 -10 -10 -10 -10 -10 -10 -10
-15 -15 -15 -14 -14 -14 -14 -14 -14 -14 -13 -13 -13 -13 -14 -14 -14 -14 -14 -14 -14 -14 -14 -14 -14 -14 -13 -14 -13 -13 -13 -13 -13 -12 -12 -12 -10 -10 -11 -11 -11 -10 -10 -10 -11
-14 -15 -15 -15 -14 -14 -14 -14 -14 -14 -14 -13 -13 -14 -14 -14 -14 -14 -15 -14 -14 -14 -14 -14 -14 -14 -14 -14 -14 -14 -14 -13 -13 -13 -13 -13 -11 -11 -11 -10 -11 -11 -11 -11 -11
-14 -14 -14 -15 -15 -14 -14 -14 -14 -14 -14 -14 -14 -14 -15 -15 -14 -14 -15 -15 -15 -15 -15 -15 -14 -15 -15 -15 -14 -15 -15 -15 -14 -14 -13 -14 -11 -11 -11 -11 -11 -11 -11 -11 -11
-14 -14 -14 -14 -14 -14 -14 -15 -14 -14 -15 -15 -15 -15 -15 -15 -15 -14 -14 -15 -15 -15 -14 -15 -15 -16 -15 -15 -15 -15 -16 -16 -16 -15 -15 -14 -15 -11 -12 -11 -12 -12 -11 -11 -11
-14 -14 -14 -14 -14 -15 -15 -15 -15 -15 -15 -15 -15 -15 -15 -15 -15 -15 -15 -15 -15 -15 -15 -16 -16 -15 -16 -16 -17 -18 -17 -16 -16 -16 -15 -16 -18 -11 -12 -12 -12 -13 -13 -12 -12
-13 -14 -14 -14 -14 -15 -15 -15 -15 -15 -16 -16 -16 -16 -16 -15 -16 -16 -16 -16 -15 -15 -16 -17 -18 -19 -19 -19 -19 -20 -21 -19 -19 -19 -18 -20 -18 -13 -14 -16 -15 -13 -13 -13 -12
-13 -13 -14 -14 -14 -14 -15 -15 -15 -15 -16 -16 -16 -17 -17 -17 -17 -17 -18 -18 -17 -17 -17 -18 -18 -20 -20 -19 -18 -19 -21 -22 -22 -21 -20 -20 -19 -18 -19 -18 -18 -15 -13 -13 -14
-13 -13 -13 -14 -14 -14 -15 -15 -15 -16 -16 -17 -17 -17 -17 -18 -18 -18 -19 -19 -18 -18 -18 -19 -18 -20 -20 -19 -20 -20 -20 -21 -22 -21 -21 -20 -19 -20 -20 -19 -19 -19 -18 -17 -14
-14 -14 -13 -14 -14 -15 -15 -15 -15 -15 -16 -16 -16 -17 -17 -18 -19 -19 -20 -20 -19 -18 -19 -19 -18 -20 -19 -19 -20 -20 -21 -21 -22 -21 -21 -20 -20 -20 -20 -20 -20 -20 -19 -18 -17
-14 -14 -14 -14 -14 -15 -15 -15 -16 -16 -16 -16 -17 -17 -17 -18 -19 -19 -20 -20 -20 -19 -20 -19 -19 -20 -20 -19 -20 -21 -21 -22 -22 -22 -21 -21 -20 -20 -20 -20 -20 -20 -20 -19 -18
-14 -14 -15 -15 -14 -15 -15 -15 -15 -16 -16 -16 -17 -17 -17 -18 -19 -20 -20 -20 -20 -20 -20 -20 -19 -19 -20 -20 -21 -21 -22 -22 -22 -22 -22 -22 -19 -20 -20 -20 -19 -19 -19 -19 -19
-15 -15 -15 -15 -15 -15 -15 -15 -16 -16 -16 -16 -17 -18 -18 -19 -19 -20 -20 -21 -20 -20 -20 -20 -19 -19 -20 -21 -21 -21 -22 -21 -21 -21 -21 -21 -19 -21 -20 -20 -20 -20 -19 -19 -19
-15 -15 -15 -15 -15 -16 -16 -16 -16 -16 -17 -17 -17 -17 -18 -19 -20 -20 -21 -21 -21 -20 -20 -20 -20 -19 -20 -20 -20 -21 -21 -22 -22 -21 -21 -21 -20 -21 -20 -20 -20 -20 -18 -18 -18
-15 -15 -15 -16 -16 -16 -16 -16 -17 -17 -17 -17 -18 -18 -19 -19 -20 -20 -21 -21 -21 -21 -20 -20 -20 -20 -20 -20 -20 -21 -21 -21 -21 -21 -21 -20 -20 -20 -20 -20 -21 -20 -19 -18 -18
-14 -15 -15 -16 -16 -16 -16 -17 -17 -17 -17 -17 -18 -19 -19 -19 -19 -20 -21 -22 -21 -21 -21 -20 -20 -20 -20 -20 -20 -21 -21 -21 -21 -21 -20 -20 -20 -20 -20 -20 -21 -20 -19 -17 -18
-14 -15 -15 -16 -16 -16 -17 -17 -17 -17 -18 -18 -18 -18 -19 -19 -20 -20 -21 -21 -21 -21 -21 -20 -20 -20 -20 -20 -20 -20 -21 -20 -20 -20 -20 -20 -20 -20 -20 -20 -20 -19 -19 -17 -18
Height
5758 5757 5756 5755 5755 5754 5754 5753 5753 5752 5752 5752 5751 5749 5750 5751 5753 5757 5760 5763 5764 5768 5774 5778 5782 5785 5788 5793 5796 5800 5806 5811 5817 5824 5832 5830 5835 5842 5838 5842 5844 5847 5851 5852 5854
5754 5752 5751 5750 5749 5749 5748 5748 5747 5747 5747 5747 5747 5747 5746 5746 5747 5749 5753 5755 5758 5762 5766 5770 5773 5777 5782 5787 5789 5792 5797 5803 5811 5813 5813 5820 5827 5832 5840 5839 5841 5841 5843 5846 5847
5750 5748 5747 5745 5744 5743 5743 5742 5742 5742 5742 5742 5742 5743 5743 5743 5744 5744 5747 5749 5752 5756 5759 5762 5765 5770 5774 5778 5781 5785 5789 5796 5801 5804 5805 5810 5818 5824 5831 5838 5838 5836 5838 5840 5843
5746 5744 5742 5741 5740 5739 5738 5737 5736 5736 5737 5737 5738 5738 5739 5740 5742 5741 5743 5745 5747 5749 5752 5754 5757 5762 5766 5770 5774 5776 5780 5785 5790 5795 5798 5802 5809 5811 5817 5831 5835 5832 5834 5833 5837
5743 5741 5739 5737 5736 5735 5733 5732 5732 5731 5731 5731 5732 5733 5734 5736 5736 5737 5739 5742 5744 5746 5747 5749 5751 5754 5758 5763 5766 5767 5772 5774 5780 5785 5789 5791 5795 5801 5806 5819 5823 5828 5828 5828 5829
5740 5738 5736 5735 5733 5731 5730 5729 5728 5727 5727 5726 5727 5728 5729 5732 5731 5732 5734 5736 5738 5741 5743 5745 5747 5749 5753 5756 5761 5762 5765 5769 5774 5779 5779 5778 5784 5787 5803 5808 5810 5816 5820 5824 5826
5738 5736 5734 5732 5730 5728 5727 5725 5724 5723 5723 5722 5722 5723 5724 5725 5727 5727 5728 5731 5734 5735 5737 5739 5741 5743 5746 5748 5750 5753 5756 5758 5763 5765 5765 5766 5772 5784 5796 5795 5795 5801 5806 5813 5818
5736 5734 5733 5731 5729 5727 5725 5722 5721 5720 5718 5718 5718 5718 5719 5720 5722 5722 5723 5725 5727 5729 5730 5732 5734 5736 5738 5740 5742 5745 5747 5750 5751 5750 5753 5754 5765 5778 5780 5780 5785 5788 5794 5798 5805
5733 5732 5731 5730 5728 5726 5724 5721 5719 5717 5715 5715 5714 5714 5715 5715 5716 5716 5718 5720 5721 5722 5723 5726 5728 5729 5730 5732 5735 5736 5738 5737 5737 5735 5738 5744 5757 5760 5761 5762 5767 5771 5778 5786 5790
5729 5729 5728 5727 5726 5724 5722 5720 5718 5716 5714 5712 5711 5712 5711 5712 5710 5711 5713 5713 5715 5716 5717 5719 5721 5722 5722 5723 5725 5727 5729 5728 5724 5726 5727 5734 5744 5748 5752 5751 5755 5761 5761 5764 5773
5725 5725 5724 5724 5724 5722 5721 5719 5718 5715 5712 5710 5708 5707 5707 5707 5706 5706 5707 5707 5708 5709 5710 5711 5713 5713 5713 5713 5716 5718 5719 5720 5718 5717 5718 5721 5730 5738 5741 5744 5746 5750 5755 5758 5764
5723 5721 5721 5721 5720 5719 5718 5717 5715 5713 5710 5707 5706 5703 5703 5702 5703 5702 5703 5703 5703 5702 5703 5704 5704 5703 5703 5703 5704 5705 5706 5706 5708 5710 5707 5708 5718 5726 5728 5731 5734 5738 5742 5746 5750
5721 5718 5717 5717 5717 5716 5714 5714 5711 5710 5708 5705 5702 5701 5700 5700 5698 5697 5698 5696 5695 5696 5695 5696 5695 5694 5693 5693 5693 5693 5692 5691 5693 5696 5694 5694 5708 5712 5715 5714 5718 5723 5726 5730 5735
5721 5718 5715 5714 5715 5713 5712 5710 5709 5707 5705 5703 5699 5698 5697 5695 5694 5692 5693 5690 5689 5688 5688 5687 5685 5685 5684 5683 5683 5680 5679 5677 5677 5677 5679 5681 5684 5695 5702 5701 5702 5708 5711 5714 5718
5723 5719 5716 5713 5712 5710 5709 5707 5705 5703 5702 5701 5697 5695 5692 5691 5689 5686 5686 5684 5683 5681 5681 5679 5678 5676 5674 5673 5671 5668 5669 5666 5665 5664 5660 5667 5660 5681 5682 5684 5691 5690 5691 5695 5700
5724 5721 5717 5714 5711 5709 5706 5703 5701 5700 5696 5695 5694 5691 5688 5685 5684 5681 5679 5678 5677 5674 5673 5671 5668 5665 5663 5661 5658 5654 5652 5651 5649 5650 5647 5651 5646 5664 5663 5668 5668 5667 5670 5674 5681
5727 5722 5718 5714 5710 5707 5704 5702 5700 5696 5694 5692 5689 5686 5682 5679 5678 5675 5672 5670 5668 5667 5666 5664 5661 5657 5654 5651 5648 5644 5639 5634 5635 5635 5635 5636 5634 5644 5648 5642 5636 5641 5651 5656 5662
5730 5725 5719 5714 5710 5706 5703 5701 5697 5694 5691 5688 5685 5681 5677 5675 5672 5669 5665 5662 5660 5658 5657 5656 5656 5654 5651 5644 5639 5634 5634 5631 5622 5625 5625 5629 5623 5630 5627 5621 5623 5625 5627 5634 5642
5731 5726 5720 5715 5710 5705 5701 5698 5695 5692 5689 5685 5681 5676 5674 5668 5665 5662 5658 5656 5653 5652 5653 5650 5650 5646 5642 5638 5632 5631 5625 5623 5616 5619 5615 5620 5619 5618 5616 5613 5611 5612 5612 5614 5624
5731 5726 5720 5715 5710 5705 5700 5696 5691 5687 5684 5679 5675 5672 5668 5664 5660 5656 5654 5650 5646 5645 5645 5644 5642 5641 5637 5634 5629 5626 5622 5618 5615 5612 5609 5608 5609 5608 5608 5607 5604 5604 5603 5603 5608
5731 5726 5720 5714 5709 5704 5699 5694 5689 5684 5680 5675 5670 5664 5660 5655 5652 5649 5647 5646 5639 5640 5639 5638 5637 5637 5631 5628 5624 5619 5615 5613 5611 5610 5605 5601 5598 5601 5600 5598 5595 5595 5593 5592 5598
5730 5724 5718 5713 5709 5702 5696 5691 5686 5680 5676 5670 5664 5658 5653 5648 5645 5641 5639 5635 5634 5633 5633 5632 5630 5630 5628 5622 5617 5613 5611 5608 5605 5604 5601 5598 5593 5595 5591 5591 5589 5585 5584 5584 5586
5726 5721 5716 5711 5705 5700 5694 5688 5683 5676 5670 5665 5660 5653 5647 5642 5637 5635 5632 5630 5626 5625 5626 5626 5625 5622 5623 5619 5612 5608 5604 5602 5599 5597 5595 5592 5590 5586 5588 5586 5578 5573 5572 5576 5578
5721 5716 5712 5706 5701 5696 5691 5685 5678 5672 5666 5659 5653 5646 5641 5636 5631 5627 5625 5623 5621 5620 5619 5619 5619 5617 5614 5612 5607 5603 5599 5595 5592 5589 5588 5586 5583 5583 5581 5579 5573 5566 5565 5569 5573
5717 5712 5707 5702 5695 5690 5685 5679 5674 5667 5662 5654 5648 5640 5634 5630 5625 5621 5617 5616 5614 5612 5612 5614 5613 5611 5609 5605 5602 5596 5593 5590 5588 5585 5580 5578 5574 5575 5576 5575 5569 5562 5563 5560 5569
5713 5707 5699 5695 5691 5686 5679 5674 5667 5663 5654 5649 5642 5636 5628 5623 5617 5613 5610 5608 5608 5606 5606 5607 5608 5605 5605 5600 5596 5592 5589 5585 5583 5580 5576 5571 5568 5568 5569 5570 5566 5562 5561 5559 5567
5710 5703 5696 5688 5681 5679 5673 5668 5663 5655 5650 5640 5634 5630 5623 5616 5610 5606 5603 5602 5603 5601 5601 5600 5600 5599 5599 5595 5593 5588 5583 5580 5577 5573 5570 5568 5565 5562 5561 5564 5564 5562 5561 5562 5567
Wind_Speed
18 20 22 23 24 24 24 24 23 24 22 21 21 21 26 28 26 29 31 34 39 40 43 40 40 40 45 45 44 43 39 33 54 49 38 34 44 48 45 40 33 32 27 23 29
17 17 18 20 22 23 24 24 23 22 21 20 19 17 18 22 24 27 29 30 32 35 37 38 42 43 43 39 41 46 43 36 42 46 50 46 38 45 50 46 40 39 38 34 31
17 17 17 18 19 20 21 23 24 22 21 19 19 18 16 17 20 23 26 28 29 31 33 35 40 43 44 44 44 42 43 37 44 50 45 45 53 37 49 52 48 42 45 43 39
15 15 16 17 17 18 17 17 20 21 22 20 19 18 18 17 18 19 21 23 25 27 29 32 34 39 43 45 44 45 46 45 40 47 51 45 43 52 41 46 53 51 47 51 49
14 13 13 14 14 16 17 17 17 16 17 19 19 20 20 18 19 19 21 22 24 25 27 28 29 33 36 40 44 45 45 46 44 43 47 51 55 49 55 50 46 54 56 55 56
14 13 13 13 14 14 15 15 17 17 18 18 18 17 17 17 21 22 22 23 24 26 28 29 31 32 33 35 38 40 41 42 42 42 47 52 54 61 54 48 56 54 48 52 55
14 12 11 11 11 11 12 13 14 15 16 19 19 19 18 20 20 21 23 25 25 27 28 29 30 32 33 34 37 39 42 43 41 41 42 45 50 51 48 53 64 70 64 52 55
14 12 10 10 9 9 10 11 12 11 12 14 16 18 18 18 18 21 22 23 23 26 28 31 32 35 36 37 37 39 41 41 40 40 40 42 48 42 46 49 53 53 57 54 54
14 12 10 10 10 9 10 10 11 13 13 12 13 14 16 18 19 21 22 23 25 26 27 29 31 33 35 38 40 42 43 44 44 45 46 47 44 43 46 52 53 53 59 66 55
12 11 11 11 11 11 12 12 11 12 12 12 12 13 13 12 19 20 20 22 23 25 27 30 31 32 35 37 39 41 42 45 49 48 51 50 49 49 48 53 55 57 59 58 62
13 13 11 11 11 12 14 14 11 14 10 11 12 11 11 14 17 18 17 20 20 22 23 26 28 30 34 37 39 41 44 47 51 53 53 53 51 49 51 53 55 55 56 57 56
10 12 14 11 11 12 12 14 13 14 12 14 10 12 11 12 14 16 17 19 20 22 25 27 26 31 33 35 38 41 44 47 47 50 55 58 54 51 53 53 53 55 58 57 56
16 12 10 12 11 12 13 12 13 15 14 13 13 10 10 11 13 14 14 17 20 21 23 24 27 30 34 37 39 41 44 48 50 51 54 57 57 57 57 58 57 57 58 57 57
18 15 12 10 13 13 14 14 15 15 16 13 12 11 14 15 16 17 14 20 22 22 23 25 28 30 32 35 38 41 41 46 50 52 55 56 60 58 59 61 62 61 60 61 60
22 16 13 11 11 15 17 19 19 18 17 15 15 14 16 18 19 22 20 21 21 23 24 24 25 27 31 34 37 39 38 43 47 50 53 55 61 55 58 60 60 64 66 64 64
24 21 18 14 14 13 14 16 17 16 19 16 13 15 19 22 22 24 25 24 23 24 25 24 25 29 32 35 38 41 44 47 49 47 52 50 50 59 59 60 63 64 66 69 69
27 23 21 19 16 14 16 17 19 20 20 20 18 19 21 24 24 27 29 26 26 27 23 20 19 22 27 33 37 38 36 43 39 30 36 28 40 52 52 50 60 70 68 69 70
29 27 24 22 20 18 15 15 16 17 17 20 21 21 25 26 28 28 28 27 28 29 25 17 12 15 22 29 36 37 29 34 40 30 25 20 33 26 31 43 49 58 68 70 71
27 27 27 26 23 21 21 20 19 19 18 21 24 25 24 26 28 28 27 29 30 28 17 15 16 17 24 28 32 28 31 31 35 33 34 27 22 20 24 33 40 41 45 55 60
27 27 26 26 25 25 24 23 23 25 25 25 27 25 24 24 25 26 24 28 30 28 14 15 18 14 19 24 25 27 26 21 20 30 36 29 24 29 28 29 35 38 44 44 51
27 27 26 26 24 24 24 25 25 25 27 28 28 29 29 28 25 24 24 21 29 23 15 16 14 15 16 23 21 22 22 21 25 27 35 33 26 22 25 25 31 34 36 43 43
30 29 28 25 24 24 25 25 26 28 26 28 30 31 29 27 24 25 25 25 26 17 15 15 16 17 13 19 20 20 21 19 24 23 23 31 28 24 29 27 31 36 32 36 33
31 30 28 27 25 25 26 27 28 30 32 32 29 28 29 28 28 21 23 24 25 18 16 16 15 18 11 16 19 19 18 23 23 23 25 28 27 27 27 29 31 35 26 27 32
32 32 31 30 28 27 25 28 30 31 33 34 34 34 31 28 26 25 23 22 22 21 20 18 16 18 17 22 21 17 15 21 27 29 30 32 30 23 23 27 30 33 28 33 33
33 33 31 30 29 30 29 30 29 33 34 36 34 35 32 30 28 24 27 18 20 19 21 17 13 17 17 23 22 19 14 15 22 24 29 30 35 29 32 25 25 25 30 13 33
31 33 35 35 31 28 31 30 33 32 37 37 38 35 31 31 30 23 22 19 19 21 20 19 17 21 10 19 21 20 14 15 16 20 21 24 24 27 28 24 24 19 21 10 32
31 31 32 36 38 33 33 32 33 36 34 38 40 37 31 31 28 23 23 18 16 19 20 21 19 15 8 13 16 18 19 21 18 19 19 21 17 22 23 25 22 13 8 20 34
Wind_Direction
292 283 276 272 269 268 270 272 274 274 278 278 272 263 259 250 245 250 250 241 238 236 233 234 236 236 231 232 224 231 231 239 238 228 210 209 211 208 192 183 190 212 214 217 218
300 295 289 282 274 269 267 267 267 268 267 269 271 265 258 247 238 235 239 238 235 235 236 236 233 234 237 230 233 232 236 245 238 230 226 214 214 215 210 193 192 204 216 217 232
310 302 298 294 288 281 273 268 267 265 265 262 261 261 253 248 238 233 231 234 233 233 231 231 231 233 236 237 240 244 240 241 235 235 230 234 206 217 218 211 201 209 213 217 226
311 308 305 300 295 289 282 278 272 268 265 263 259 256 251 243 242 240 236 234 235 234 234 233 230 229 233 237 239 243 243 241 239 235 229 230 228 212 223 216 219 216 218 223 225
323 320 315 311 304 295 288 281 275 274 271 267 260 254 251 246 244 238 236 233 233 234 233 236 237 235 235 236 238 242 242 244 241 237 237 238 232 224 219 220 224 225 227 230 231
329 325 321 314 308 300 293 288 277 270 265 264 264 260 253 248 242 241 237 237 238 237 234 234 237 239 238 238 240 245 247 248 249 246 247 241 236 235 226 226 231 223 231 232 236
332 334 331 331 330 323 310 298 287 275 269 262 257 257 257 248 239 245 241 238 237 239 240 238 239 242 242 239 234 236 240 243 243 244 243 247 238 235 240 236 236 234 229 226 233
327 331 333 337 339 344 344 332 319 305 284 273 264 257 253 251 249 242 241 244 238 235 236 239 239 240 243 244 245 244 244 243 246 247 244 245 235 235 235 241 240 244 229 234 232
322 322 322 327 336 340 340 339 339 331 316 295 278 270 261 257 255 249 245 244 242 240 241 241 240 243 243 242 243 245 247 250 249 249 246 243 235 229 232 233 233 232 237 233 227
295 314 316 319 319 326 331 329 328 327 332 324 296 284 276 263 256 257 253 250 249 249 247 246 245 245 247 247 244 244 244 246 250 248 248 247 244 241 236 236 234 235 236 229 229
312 287 303 307 316 312 322 325 326 320 324 322 313 290 274 263 253 255 255 258 258 259 260 257 256 254 254 255 254 251 250 248 250 253 253 252 249 246 245 243 243 240 239 242 238
344 316 282 299 301 308 314 320 322 320 324 324 315 294 288 270 267 262 258 259 258 259 259 262 265 264 262 260 260 259 256 254 253 253 255 253 249 249 248 246 246 246 246 242 240
5 340 295 281 300 302 302 314 321 318 312 308 304 291 285 282 278 273 274 268 265 266 267 267 268 268 268 269 268 267 265 263 262 257 256 256 248 248 248 248 245 243 243 245 246
11 9 352 291 286 289 302 309 315 312 310 306 287 275 291 290 284 281 275 274 275 275 274 274 271 267 267 269 269 268 263 265 264 262 260 259 258 248 247 247 249 247 245 242 242
10 5 3 348 322 289 288 300 309 308 307 302 291 298 289 287 289 287 281 277 273 276 273 272 273 273 272 271 269 270 270 267 264 265 266 264 265 255 251 248 247 248 247 245 243
21 15 6 351 344 336 315 309 311 312 313 317 321 307 298 290 285 288 292 288 283 279 285 289 287 290 296 294 294 293 288 282 280 275 268 266 265 258 259 255 251 245 244 244 241
23 19 11 5 359 341 326 318 314 317 320 321 321 309 307 300 304 297 295 294 294 294 301 298 308 316 313 308 301 294 288 290 288 279 276 273 263 263 261 261 256 248 244 242 243
18 17 14 10 6 2 351 337 328 335 326 317 315 312 306 310 305 300 296 300 297 300 306 304 313 327 315 317 318 308 285 280 290 281 277 255 275 281 263 261 258 256 252 244 238
9 9 9 8 3 359 354 345 338 332 320 311 311 310 307 302 300 296 294 295 295 299 293 289 298 316 313 320 313 318 303 288 276 262 278 283 268 270 271 261 251 250 251 250 244
7 2 0 1 0 358 354 350 343 339 335 326 320 313 306 296 287 286 285 287 289 302 280 294 297 323 317 317 309 303 302 293 274 269 276 279 279 292 287 266 256 257 260 258 248
359 360 356 354 354 353 352 348 341 338 337 331 325 321 315 307 296 281 281 281 285 294 275 293 293 332 316 318 310 301 288 289 282 279 286 280 288 284 290 278 252 262 267 263 248
349 351 353 351 347 349 347 346 343 342 340 334 331 327 321 313 301 290 283 285 288 275 264 276 286 308 313 309 309 296 288 286 269 287 281 278 275 289 288 292 279 287 268 259 232
340 343 345 345 345 344 343 342 341 340 338 337 338 332 328 321 309 296 288 284 284 261 270 279 288 300 316 319 303 304 291 274 270 278 273 276 290 290 290 308 304 303 270 251 231
334 335 336 337 338 337 340 339 338 340 335 333 335 334 332 326 312 304 289 286 290 259 268 273 280 303 319 317 317 321 296 272 277 277 279 273 293 294 281 302 309 323 292 267 227
332 330 330 330 331 331 334 334 336 334 335 331 332 331 331 327 315 304 294 282 287 261 263 272 286 307 308 311 317 333 302 271 272 285 279 289 278 280 284 290 309 328 289 214 208
335 332 329 326 325 324 325 329 329 331 331 329 327 329 325 323 321 313 287 273 278 267 266 273 281 293 303 312 322 333 311 306 293 286 292 293 295 277 271 286 299 315 306 214 207
332 335 332 326 322 323 322 323 325 325 328 324 325 325 321 319 320 312 300 269 281 269 265 283 290 284 280 304 328 337 319 312 301 303 294 292 287 298 282 281 274 295 291 172 204